Terminal Aerodrome Forecast
Issued by NWS Cleveland, OH

Home | Current Version | Previous Version | Graphics & Text | Print | Product List | Glossary On
Versions: 1 2 3 4 5 6 7 8 9 10 11 12 13 14 15 16 17 18 19 20 21 22 23 24
000
FTUS41 KCLE 182000 AAA
TAFTOL
TAF AMD
KTOL 182059Z 1821/1918 07014G20KT P6SM BKN200
     FM190000 07012KT P6SM BKN200
     FM191700 09012G20KT P6SM VCSH BKN060 OVC100=

USA.gov is the U.S. government's official web portal to all federal, state and local government web resources and services.